Regional Weather Roundup
Issued by NWS

Home | Current Version | Previous Version | Graphics & Text | Print | Product List | Glossary Off
Versions: 1 2 3 4 5 6 7 8 9 10 11 12 13 14 15 16 17 18 19 20 21 22 23 24 25 26 27 28 29 30 31 32 33 34 35 36 37 38 39 40 41 42 43 44 45 46 47 48 49 50

000
ASUS45 KSLC 012310
RWRUT

UTAH REGIONAL WEATHER ROUNDUP
NATIONAL WEATHER SERVICE SALT LAKE CITY UT
400 PM MST SUN FEB 01 2015

UTZ001>011-023>025-020000-

NORTHERN UTAH

CITY           SKY/WX    TMP DP  RH WIND       PRES   REMARKS
BRIGHAM CITY   CLOUDY    42  30  61 SE3       30.17F
HILL AFB       CLOUDY    43  15  31 S9        30.15F
LOGAN          CLOUDY    41  27  57 CALM      30.15F
OGDEN          CLOUDY    44  27  51 S7        30.15F
PROVO AIRPORT  PTSUNNY   46  25  42 CALM      30.19
SALT LAKE CITY CLOUDY    48  28  46 CALM      30.17F
VERNAL         CLOUDY    42  20  41 CALM      30.12F
WENDOVER       CLOUDY    43  28  56 CALM      30.16F
HEBER CITY     CLOUDY    41  27  56 CALM      30.16S
WEST JORDAN    PTSUNNY   46  25  42 S8        30.20R

$$

UTZ012>022-026-027-020000-

SOUTHERN/CENTRAL UTAH

CITY           SKY/WX    TMP DP  RH WIND       PRES   REMARKS
BLANDING       SUNNY     46  31  56 SW5       30.21S
BRYCE CANYON   SUNNY     44  19  36 W13       30.19S
CEDAR CITY     MOSUNNY   50  23  34 CALM      30.17F
DELTA          MOSUNNY   46  24  42 W5        30.20S
HANKSVILLE     SUNNY     50  30  46 SE3       30.16S
MILFORD        MOSUNNY   50  23  34 E5        30.17F
MOAB/CYNLANDS  SUNNY     50  29  44 VRB5      30.13S
PRICE          SUNNY     50  14  23 SW7       30.12R
ST GEORGE      MOCLDY    61  30  31 CALM      30.14F
KANAB          SUNNY     55  27  33 S13       30.18F

$$

REGIONAL REPORTS     COLORADO/ARIZONA

CITY           SKY/WX    TMP DP  RH WIND       PRES   REMARKS
CRAIG, CO      CLOUDY    34  16  47 CALM      30.14F
GRAND JUNCTION SUNNY     46  29  51 VRB5      30.14S
RIFLE          PTSUNNY   44  15  31 CALM      30.13S
MONTROSE       SUNNY     46  11  24 NW8       30.15F
CORTEZ         SUNNY     49   9  19 NW10      30.12S
PAGE, AZ       NOT AVBL
GRAND CANYON   SUNNY     51  18  27 SW8       30.19R
KINGMAN        SUNNY     62  33  33 NW6       30.13S
FLAGSTAFF      SUNNY     51  13  21 E6        30.18S

$$

REGIONAL REPORTS    NEVADA/IDAHO/WYOMING

CITY           SKY/WX    TMP DP  RH WIND       PRES   REMARKS
LAS VEGAS, NV  PTSUNNY   63  26  24 S8        30.09F
ELY            CLOUDY    54   4  13 W9        30.17S
ELKO           PTSUNNY   49  22  34 SW8       30.13F
POCATELLO, ID  PTSUNNY   37  31  78 CALM      30.12F
BURLEY         CLOUDY    42  31  64 NE7       30.10F
EVANSTON, WY   PTSUNNY   35  15  44 SW13      30.13F WCI  26
ROCK SPRINGS   CLOUDY    34  13  41 W15       30.09S WCI  24
KEMMERER       MOSUNNY   32  21  64 W14       30.11F WCI  22

$$



USA.gov is the U.S. government's official web portal to all federal, state and local government web resources and services.